Location: Baia Mare
(47.6567°N, 23.5850°E)
Time: 02:20:34

ISS - Pass Details

Date: 03 March 2018
Orbit: 403 x 406 km, 51.6° (Epoch: 24 March)

Event Time Altitude Azimuth Distance (km) Brightness Sun altitude
Exits shadow 04:41:20 20° 128° (SE) 1,012 -1.5 -24.4°
Drops below altitude 10° 04:43:26 10° 89° (E) 1,466 0.0 -24.1°
Sets 04:45:51 0° 72° (ENE) 2,329 1.5 -23.7°
